GW3620 Weather Reports


Display with metric or nautical units.
time (UTC)temp
F
wind
direction
speed
MPH
gust
MPH
rain 1hr
in
rain 24hr
in
rain mn
in
humidity
%
barometer
mb
20260504081031 71 40 3.0 9.0 0.00 0.00 0.00 32 1009.8
20260504045031 74 53 4.0 10.0 0.00 0.00 0.00 28 1010.5
20260504044050 74 68 5.0 10.0 0.00 0.00 0.00 27 1010.5
20260504043031 75 23 7.0 12.0 0.00 0.00 0.00 26 1010.4
20260504042050 75 41 7.0 15.0 0.00 0.00 0.00 25 1010.4
20260504041033 75 38 5.0 13.0 0.00 0.00 0.00 24 1010.0
20260504040033 75 66 4.0 7.0 0.00 0.00 0.00 23 1009.5
20260504035031 76 71 8.0 13.0 0.00 0.00 0.00 21 1009.5
20260504034031 76 71 4.0 9.0 0.00 0.00 0.00 20 1009.2
20260504033033 77 58 6.0 13.0 0.00 0.00 0.00 20 1009.1
20260504032033 77 71 5.0 10.0 0.00 0.00 0.00 19 1009.1
20260504031032 78 55 5.0 15.0 0.00 0.00 0.00 18 1008.7
20260504030107 78 61 4.0 9.0 0.00 0.00 0.00 18 1008.4
20260504025050 79 79 3.0 12.0 0.00 0.00 0.00 17 1008.4
20260504024031 79 278 5.0 9.0 0.00 0.00 0.00 17 1008.0
20260504023048 80 286 5.0 10.0 0.00 0.00 0.00 16 1007.8
20260504022033 80 286 6.0 13.0 0.00 0.00 0.00 15 1007.8
20260504021032 81 288 5.0 12.0 0.00 0.00 0.00 15 1007.8
20260504020033 81 86 5.0 15.0 0.00 0.00 0.00 15 1007.5
20260504015033 82 83 5.0 13.0 0.00 0.00 0.00 15 1007.5
20260504014033 83 290 7.0 16.0 0.00 0.00 0.00 14 1007.3
20260504013048 84 276 9.0 21.0 0.00 0.00 0.00 14 1007.0
20260504012032 85 80 5.0 10.0 0.00 0.00 0.00 14 1007.0
20260504011033 85 272 6.0 16.0 0.00 0.00 0.00 14 1007.4
20260504010033 85 270 3.0 21.0 0.00 0.00 0.00 13 1007.3
20260504005033 86 75 3.0 12.0 0.00 0.00 0.00 13 1007.3
20260504004033 86 80 8.0 16.0 0.00 0.00 0.00 14 1007.3
20260504003033 87 286 9.0 19.0 0.00 0.00 0.00 13 1006.7
20260504002031 87 281 8.0 19.0 0.00 0.00 0.00 13 1006.7
20260504001048 87 69 8.0 18.0 0.00 0.00 0.00 13 1006.6
20260504000033 87 279 10.0 21.0 0.00 0.00 0.00 13 1006.6
20260503235107 88 288 9.0 21.0 0.00 0.00 0.00 13 1006.6
20260503234033 88 88 8.0 21.0 0.00 0.00 0.00 13 1006.5
20260503233033 88 82 9.0 18.0 0.00 0.00 0.00 13 1006.5
20260503232032 89 80 9.0 19.0 0.00 0.00 0.00 13 1006.5
20260503231031 89 290 6.0 19.0 0.00 0.00 0.00 14 1006.5
20260503230033 89 85 7.0 19.0 0.00 0.00 0.00 14 1006.6
20260503225107 89 80 7.0 18.0 0.00 0.00 0.00 15 1006.6
20260503224033 89 84 4.0 13.0 0.00 0.00 0.00 17 1006.4
20260503223033 89 65 2.0 10.0 0.00 0.00 0.00 18 1006.9
20260503222033 88 27 5.0 16.0 0.00 0.00 0.00 20 1006.9
20260503221033 87 14 3.0 9.0 0.00 0.00 0.00 22 1006.9
20260503220031 87 35 4.0 10.0 0.00 0.00 0.00 22 1007.5
20260503215033 86 9 4.0 10.0 0.00 0.00 0.00 23 1007.5
20260503214033 85 4 5.0 15.0 0.00 0.00 0.00 24 1007.9
20260503213033 85 9 4.0 10.0 0.00 0.00 0.00 24 1008.4
20260503212050 84 7 6.0 12.0 0.00 0.00 0.00 24 1008.4
20260503211033 84 9 6.0 13.0 0.00 0.00 0.00 24 1008.3
20260503210033 84 357 6.0 12.0 0.00 0.00 0.00 24 1008.7
20260503205031 83 16 5.0 12.0 0.00 0.00 0.00 24 1008.7
20260503204033 83 1 5.0 10.0 0.00 0.00 0.00 25 1008.8
20260503203032 83 357 5.0 12.0 0.00 0.00 0.00 25 1009.0
20260503202033 82 5 6.0 10.0 0.00 0.00 0.00 25 1009.0
20260503201033 82 7 3.0 9.0 0.00 0.00 0.00 25 1009.2
20260503200050 82 5 5.0 13.0 0.00 0.00 0.00 26 1009.7
20260503195048 82 3 8.0 15.0 0.00 0.00 0.00 26 1009.7
20260503194033 81 27 7.0 15.0 0.00 0.00 0.00 27 1009.7
20260503193033 81 18 6.0 13.0 0.00 0.00 0.00 28 1009.7
20260503192033 81 14 6.0 13.0 0.00 0.00 0.00 28 1009.7
20260503191032 81 22 6.0 12.0 0.00 0.00 0.00 28 1009.8
20260503190033 80 2 6.0 12.0 0.00 0.00 0.00 29 1010.1
20260503185033 80 5 8.0 21.0 0.00 0.00 0.00 29 1010.1
20260503184031 80 26 6.0 16.0 0.00 0.00 0.00 29 1010.5
20260503183032 80 17 6.0 13.0 0.00 0.00 0.00 30 1010.4
20260503182033 80 2 4.0 9.0 0.00 0.00 0.00 30 1010.4
20260503181033 79 7 7.0 16.0 0.00 0.00 0.00 30 1010.8
20260503180032 79 3 7.0 13.0 0.00 0.00 0.00 30 1011.0
20260503175033 79 332 10.0 19.0 0.00 0.00 0.00 30 1011.0
20260503174033 79 4 7.0 15.0 0.00 0.00 0.00 30 1011.3
20260503173031 79 27 7.0 13.0 0.00 0.00 0.00 30 1011.4
20260503172033 79 8 4.0 12.0 0.00 0.00 0.00 30 1011.4
20260503171033 79 0 5.0 10.0 0.00 0.00 0.00 30 1011.4